Alma, MI

9:17 AM EST on February 24, 2018 (GMT -0500)
Gratiot Community

Weather History for KAMN - November, 2011

Change the Weather History Date:

Sunday, November 27, 2011

  Actual Average Record
Temperature  
Mean Temperature 43 °F -  
Max Temperature 53 °F 42 °F 62 °F (1984)
Min Temperature 32 °F 28 °F 4 °F (1951)
Degree Days  
Heating Degree Days 22    
Moisture  
Dew Point 42 °F    
Average Humidity 97    
Maximum Humidity 100    
Minimum Humidity 93    
Precipitation  
Precipitation 0.00 in - - ()
Sea Level Pressure  
Sea Level Pressure 29.84 in    
Wind  
Wind Speed 10 mph (NW)    
Max Wind Speed 15 mph    
Max Gust Speed 18 mph    
Visibility 8 miles    
Events Rain    
Averages and records for this station are not official NWS values.
T = Trace of Precipitation, MM = Missing Value Source: NWS Daily Summary

Daily Weather History Graph

Daily Weather History Graph

Search for Another Location

Airport or City:

Trip Planner

Search our weather history database for the weather conditions in past years. The results will help you decide how hot, cold, wet, or windy it might be!

Date:

Astronomy

Nov. 27, 2011 Rise Set
Actual Time 7:46 AM EST 5:05 PM EST
Civil Twilight 7:14 AM EST 5:37 PM EST
Nautical Twilight 6:39 AM EST 6:12 PM EST
Astronomical Twilight 6:05 AM EST 6:47 PM EST
Moon 10:11 AM EST (11/27) 7:43 PM EST (11/27)
Length of Visible Light 10h 22m
Length of Day
9h 19m
Waxing Crescent, 8% of the Moon is Illuminated
Nov 27
Waxing Crescent
Dec 2
First Quarter
Dec 10
Full
Dec 17
Last Quarter
Dec 24
New

Hourly Weather History & Observations

Time (EST) Temp. Windchill Dew Point Humidity Pressure Visibility Wind Dir Wind Speed Gust Speed Precip Events Conditions
12:11 AM 53.6 °F - 53.6 °F 100% 29.75 in 7.0 mi South 10.4 mph - N/A Rain Light Rain
12:51 AM 53.6 °F - 51.8 °F 94% 29.73 in 7.0 mi South 11.5 mph 17.3 mph N/A Rain Light Rain
1:11 AM 53.6 °F - 51.8 °F 94% 29.72 in 7.0 mi South 10.4 mph - N/A Rain Light Rain
1:31 AM 51.8 °F - 51.8 °F 100% 29.71 in 10.0 mi South 11.5 mph 17.3 mph N/A   Drizzle
1:51 AM 51.8 °F - 51.8 °F 100% 29.71 in 10.0 mi South 11.5 mph 16.1 mph N/A   Light Drizzle
2:07 AM 51.8 °F - 51.8 °F 100% 29.71 in 10.0 mi South 11.5 mph 17.3 mph N/A Rain Light Rain
2:27 AM 53.6 °F - 51.8 °F 94% 29.71 in 10.0 mi South 12.7 mph 16.1 mph N/A   Light Drizzle
3:07 AM 53.6 °F - 51.8 °F 94% 29.70 in 10.0 mi South 12.7 mph - N/A Rain Rain
3:27 AM 53.6 °F - 51.8 °F 94% 29.70 in 10.0 mi South 11.5 mph - N/A Rain Light Rain
3:47 AM 53.6 °F - 51.8 °F 94% 29.68 in 7.0 mi South 9.2 mph - N/A Rain Light Rain
4:07 AM 51.8 °F - 51.8 °F 100% 29.67 in 10.0 mi South 10.4 mph - N/A Rain Rain
4:27 AM 51.8 °F - 51.8 °F 100% 29.68 in 7.0 mi South 9.2 mph - N/A Rain Rain
4:48 AM 51.8 °F - 51.8 °F 100% 29.68 in 7.0 mi South 10.4 mph - N/A Rain Light Rain
5:08 AM 51.8 °F - 51.8 °F 100% 29.68 in 5.0 mi WNW 6.9 mph - N/A Rain Rain
5:28 AM 50.0 °F - 50.0 °F 100% 29.69 in 5.0 mi NNW 5.8 mph - N/A Rain Rain
6:08 AM 50.0 °F - 50.0 °F 100% 29.69 in 7.0 mi NW 3.5 mph - N/A Rain Rain
6:28 AM 50.0 °F - 50.0 °F 100% 29.70 in 5.0 mi WNW 5.8 mph - N/A Rain Rain
6:48 AM 50.0 °F - 50.0 °F 100% 29.71 in 5.0 mi NW 3.5 mph - N/A Rain Light Rain
7:08 AM 50.0 °F - 50.0 °F 100% 29.71 in 5.0 mi NNW 4.6 mph - N/A   Drizzle
7:28 AM 50.0 °F - 50.0 °F 100% 29.72 in 7.0 mi NW 4.6 mph - N/A Rain Rain
7:49 AM 48.2 °F - 48.2 °F 100% 29.73 in 4.0 mi NNW 10.4 mph - N/A Rain Heavy Rain
8:09 AM 44.6 °F 38.8 °F 44.6 °F 100% 29.75 in 5.0 mi NNW 11.5 mph 16.1 mph N/A Rain Rain
8:29 AM 44.6 °F 39.2 °F 44.6 °F 100% 29.76 in 4.0 mi NNW 10.4 mph 16.1 mph N/A Rain Light Rain
8:49 AM 44.6 °F 40.2 °F 44.6 °F 100% 29.77 in 4.0 mi NW 8.1 mph - N/A Rain Light Rain
9:29 AM 44.6 °F 38.8 °F 44.6 °F 100% 29.78 in 2.5 mi NNW 11.5 mph - N/A Rain Light Rain
10:09 AM 42.8 °F 36.2 °F 42.8 °F 100% 29.81 in 10.0 mi NNW 12.7 mph 17.3 mph N/A   Overcast
10:29 AM 42.8 °F 35.4 °F 41.0 °F 93% 29.82 in 10.0 mi NNW 15.0 mph - N/A Rain Light Rain
10:49 AM 42.8 °F 38.6 °F 41.0 °F 93% 29.83 in 10.0 mi NNW 6.9 mph 18.4 mph N/A Rain Light Rain
11:10 AM 41.0 °F 33.9 °F 41.0 °F 100% 29.84 in 7.0 mi NNW 12.7 mph 17.3 mph N/A   Overcast
11:30 AM 41.0 °F 34.7 °F 41.0 °F 100% 29.83 in 10.0 mi NNW 10.4 mph - N/A Rain Light Rain
11:50 AM 41.0 °F 33.9 °F 41.0 °F 100% 29.83 in 7.0 mi NNW 12.7 mph - N/A   Overcast
12:10 PM 41.0 °F 35.2 °F 41.0 °F 100% 29.83 in 7.0 mi NNW 9.2 mph - N/A   Overcast
12:50 PM 39.2 °F 31.6 °F 37.4 °F 93% 29.84 in 5.0 mi NNW 12.7 mph 18.4 mph N/A Rain Light Rain
1:10 PM 39.2 °F 33.0 °F 37.4 °F 93% 29.83 in 5.0 mi NNW 9.2 mph - N/A Rain Light Rain
1:30 PM 37.4 °F 30.3 °F 37.4 °F 100% 29.85 in 4.0 mi NW 10.4 mph - N/A   Overcast
1:50 PM 37.4 °F 29.3 °F 37.4 °F 100% 29.86 in 3.0 mi NNW 12.7 mph 16.1 mph N/A   Overcast
2:11 PM 37.4 °F 29.3 °F 37.4 °F 100% 29.86 in 3.0 mi NNW 12.7 mph - N/A   Overcast
2:31 PM 37.4 °F 30.8 °F 37.4 °F 100% 29.86 in 7.0 mi NNW 9.2 mph - N/A Rain Light Rain
2:51 PM 37.4 °F 30.3 °F 37.4 °F 100% 29.87 in 7.0 mi NNW 10.4 mph - N/A Rain Light Rain
3:11 PM 37.4 °F 31.4 °F 35.6 °F 93% 29.87 in 7.0 mi NNW 8.1 mph - N/A Rain Light Rain
3:31 PM 37.4 °F 31.4 °F 35.6 °F 93% 29.89 in 10.0 mi NW 8.1 mph - N/A Rain Light Rain
3:51 PM 37.4 °F 32.1 °F 35.6 °F 93% 29.91 in 7.0 mi NW 6.9 mph - N/A   Overcast
4:11 PM 37.4 °F 29.3 °F 35.6 °F 93% 29.92 in 7.0 mi NW 12.7 mph - N/A Rain Light Rain
4:31 PM 35.6 °F 28.6 °F 35.6 °F 100% 29.92 in 5.0 mi NNW 9.2 mph 18.4 mph N/A Rain Light Rain
4:51 PM 35.6 °F 28.0 °F 33.8 °F 93% 29.94 in 7.0 mi NNW 10.4 mph - N/A Rain Light Rain
5:12 PM 33.8 °F 27.7 °F 33.8 °F 100% 29.95 in 7.0 mi NNW 6.9 mph - N/A Rain Light Rain
5:32 PM 33.8 °F 27.7 °F 33.8 °F 100% 29.95 in 7.0 mi NNW 6.9 mph - N/A Rain Light Rain
5:47 PM 35.6 °F 29.9 °F 33.8 °F 93% 29.98 in 10.0 mi NW 6.9 mph - N/A Rain Light Rain
6:07 PM 33.8 °F 28.6 °F 33.8 °F 100% 29.98 in 10.0 mi WNW 5.8 mph - N/A Rain Light Rain
6:27 PM 35.6 °F 29.9 °F 33.8 °F 93% 29.97 in 10.0 mi NNW 6.9 mph - N/A   Overcast
6:47 PM 35.6 °F 29.9 °F 33.8 °F 93% 29.98 in 10.0 mi NNW 6.9 mph - N/A   Overcast
7:07 PM 35.6 °F 29.9 °F 33.8 °F 93% 29.99 in 10.0 mi NNW 6.9 mph - N/A   Overcast
7:27 PM 33.8 °F 29.6 °F 33.8 °F 100% 30.01 in 10.0 mi NW 4.6 mph - N/A   Overcast
7:47 PM 35.6 °F 31.7 °F 33.8 °F 93% 30.02 in 10.0 mi NW 4.6 mph - N/A   Overcast
8:08 PM 33.8 °F 28.6 °F 32.0 °F 93% 30.01 in 10.0 mi NNW 5.8 mph - N/A   Overcast
8:28 PM 33.8 °F 26.4 °F 32.0 °F 93% 30.02 in 10.0 mi NW 9.2 mph - N/A   Mostly Cloudy
8:48 PM 33.8 °F 26.4 °F 32.0 °F 93% 30.02 in 10.0 mi NW 9.2 mph - N/A   Mostly Cloudy
9:08 PM 33.8 °F 27.7 °F 32.0 °F 93% 30.03 in 10.0 mi NNW 6.9 mph - N/A   Overcast
9:28 PM 33.8 °F 27.7 °F 32.0 °F 93% 30.04 in 10.0 mi NW 6.9 mph - N/A   Overcast
9:48 PM 33.8 °F 27.7 °F 32.0 °F 93% 30.06 in 7.0 mi NNW 6.9 mph - N/A   Overcast
10:08 PM 32.0 °F 28.7 °F 32.0 °F 100% 30.05 in 10.0 mi NNW 3.5 mph - N/A   Overcast
10:28 PM 32.0 °F - 32.0 °F 100% 30.06 in 10.0 mi Calm Calm - N/A   Mostly Cloudy
10:48 PM 32.0 °F 26.4 °F 32.0 °F 100% 30.06 in 10.0 mi WNW 5.8 mph - N/A   Mostly Cloudy
11:09 PM 33.8 °F 27.7 °F 32.0 °F 93% 30.05 in 10.0 mi NW 6.9 mph - N/A   Overcast
11:29 PM 33.8 °F 26.4 °F 32.0 °F 93% 30.07 in 10.0 mi NW 9.2 mph - N/A   Overcast